Location: Home
(42.5358°N, 72.7383°W)
Time: 19:26:26
(UTC-05:00)

Transit 4A - Pass Details

Date: 08 December 2021
Orbit: 863 x 981 km, 66.8° (Epoch: 23 January)

Event Time Altitude Azimuth Distance (km) Brightness Sun altitude
Rises 00:25:49 0° 336° (NNW) 3,593 - -68.3°
Reaches altitude 10° 00:30:27 10° 8° (N) 2,677 - -67.9°
Maximum altitude 00:32:36 12° 28° (NNE) 2,561 - -67.7°
Drops below altitude 10° 00:34:47 10° 48° (NE) 2,699 - -67.4°
Sets 00:39:30 0° 80° (E) 3,664 - -67.0°
